Estación de Contra Coronel
Ultimos registro cada 15 minutos 22
| N° | Estación | Fecha / Hora | Temperatura | Humedad | Lluvia | Velocidad | Dirección | Radiación | Presion |
| 22 | Contra Coronel | 05-05-2026 05:15 | 11,8 | 99 | 0 | 1,3 | 35 | 0,6 | 1005,8 |
| 21 | Contra Coronel | 05-05-2026 05:00 | 11,8 | 99,1 | 0 | 1,3 | 25 | 0,6 | 1005,8 |
| 20 | Contra Coronel | 05-05-2026 04:45 | 11,7 | 99,3 | 0 | 1,3 | 25 | 0,6 | 1005,8 |
| 19 | Contra Coronel | 05-05-2026 04:30 | 11,7 | 99,4 | 0 | 1,3 | 15 | 0,6 | 1005,8 |
| 18 | Contra Coronel | 05-05-2026 04:15 | 11,6 | 99,6 | 0 | 1 | 27 | 0,6 | 1005,8 |
| 17 | Contra Coronel | 05-05-2026 04:00 | 11,6 | 99,5 | 0,2 | 1 | 34 | 0,6 | 1006 |
| 16 | Contra Coronel | 05-05-2026 03:45 | 11,5 | 99,6 | 0 | 0,7 | 39 | 0,6 | 1006,1 |
| 15 | Contra Coronel | 05-05-2026 03:30 | 11,4 | 99,6 | 0 | 1 | 48 | 0,6 | 1006,3 |
| 14 | Contra Coronel | 05-05-2026 03:15 | 11,4 | 99,5 | 0,2 | 0 | 42 | 0,6 | 1006,4 |
| 13 | Contra Coronel | 05-05-2026 03:00 | 11,4 | 99,4 | 0,2 | 0 | 45 | 0,6 | 1006,8 |
| 12 | Contra Coronel | 05-05-2026 02:45 | 11,3 | 99,4 | 0 | 0 | 48 | 0,6 | 1006,8 |
| 11 | Contra Coronel | 05-05-2026 02:30 | 11,3 | 99,4 | 0,2 | 0,3 | 48 | 0,6 | 1006,8 |
| 10 | Contra Coronel | 05-05-2026 02:15 | 11,3 | 99,3 | 0 | 0 | 59 | 0,6 | 1006,9 |
| 9 | Contra Coronel | 05-05-2026 02:00 | 11,2 | 99,3 | 0 | 0 | 70 | 0,6 | 1006,6 |
| 8 | Contra Coronel | 05-05-2026 01:45 | 11,3 | 99,3 | 0 | 0,3 | 79 | 0,6 | 1006,7 |
| 7 | Contra Coronel | 05-05-2026 01:30 | 11,2 | 99,3 | 0 | 0,7 | 80 | 0,6 | 1006,7 |
| 6 | Contra Coronel | 05-05-2026 01:15 | 11,3 | 99,3 | 0,2 | 0,3 | 86 | 0,6 | 1006,9 |
| 5 | Contra Coronel | 05-05-2026 01:00 | 11,2 | 99,3 | 0,2 | 0 | 52 | 0,6 | 1006,9 |
| 4 | Contra Coronel | 05-05-2026 00:45 | 11,1 | 99,3 | 0 | 0 | 52 | 0,6 | 1006,8 |
| 3 | Contra Coronel | 05-05-2026 00:30 | 11,2 | 99,3 | 0 | 0 | 56 | 0,6 | 1007 |
| 2 | Contra Coronel | 05-05-2026 00:15 | 11,1 | 99,3 | 0 | 0 | 25 | 0,6 | 1007 |
| 1 | Contra Coronel | 05-05-2026 00:00 | 11,1 | 99,2 | 0,2 | 0 | 25 | 0,6 | 1007,1 |